"Pseudo-MPEC" for P22eEIp

Created 2025 Oct 5 20:35:16 UT using Find_Orb

Click here for an explanation of pseudo-MPECs

 
 Astrometry: 
     P22eEIp* C2025 09 14.27046221 10 58.582+15 29 30.92   ~9E95 22.19wXNEOCPF52
     P22eEIp  C2025 09 14.28262221 10 58.781+15 29 21.26   ~9E95 22.98wXNEOCPF52
     P22eEIp  C2025 09 14.29478421 10 58.986+15 29 11.85   ~9E95 22.10wXNEOCPF52
     P22eEIp KC2025 09 15.10947821 11 16.17 +15 18 29.5    ~9F3K 22.8 GVNEOCPH21
     P22eEIp KC2025 09 15.11376521 11 16.28 +15 18 26.0    ~9F3K 22.9 GVNEOCPH21
     P22eEIp KC2025 09 15.11819321 11 16.35 +15 18 23.2    ~9F3K 22.5 GVNEOCPH21

Station data:
(F52) Pan-STARRS 2, Haleakala  (N20.707382 W156.255910)  US/Hawaii.
   Observers J. Herman, T. Lowe, P. Minguez, A. Schultz, I. Smith. Measurers
   K. Chambers, T. de Boer, J. Fairlamb, H. Gao, M. Huber, C.-C. Lin, E.
   Magnier, Y. Ramanjooloo, R. Wainscoat, R. Weryk. 1.8-m Ritchey-Chrétien +
   CCD.
(H21) Astronomical Research Observatory, Westfield  (N39.483054 W87.968270)
   US/Illinois.  Observer R. Holmes. Measurers S. Foglia, L. Buzzi, T.
   Linder, R. Holmes. 0.40-m f/5.32 astrograph + CCD.

Orbital elements:  P22eEIp
   Perihelion 2025 Jun 12.607695 +/- 55.3 TT = 14:35:04.8 (JD 2460839.107695)
Epoch 2025 Sep 15.0 TT = JDT 2460933.5   Earth MOID: 0.0335   Ju: 0.5183
M   0.439369742 +/- 11              Sa: 0.2143   Ur: 0.5795      AutoNEOCP
n   0.004654719 +/-                 Peri.  331.172327 +/- 60
a  35.52551201 +/-                  Node   280.697488 +/- 23
e   0.97435002 +/- 0.196            Incl.   16.625234 +/- 2.5
P 211.74371                H 20.62  G  0.15   U 10.5  SR
q 0.911228532 +/- 0.35    Q 70.13979549 +/- 11.7          (J2000 ecliptic)
From 6 observations 2025 Sept. 14-15 (20.3 hr); mean residual 0".17
Residuals in arcseconds: 
250914 F52  .04+  .04+    250914 F52  .01-  .05+    250915 H21  .21+  .27-    
250914 F52  .03-  .09-    250915 H21  .24-  .10-    250915 H21  .03+  .37+    

Ephemerides (geocentric):
Date (UTC) HH   RA             Dec           delta  r     elong  mag " sig PA
---- --------  ------------   ------------  ------ ------ -----  --- --------
2025 10 05 21  21 23 01.708   +11 36 50.21  1.2662 2.0518 129.4 23.8 2073  41
2025 10 05 22  21 23 03.560   +11 36 29.35  1.2670 2.0523 129.4 23.8 2080  41
2025 10 05 23  21 23 05.413   +11 36 08.52  1.2678 2.0528 129.3 23.8 2088  41
2025 10 06 00  21 23 07.268   +11 35 47.71  1.2686 2.0533 129.3 23.8 2096  41
2025 10 06 01  21 23 09.124   +11 35 26.92  1.2694 2.0538 129.3 23.8 2103  42
2025 10 06 02  21 23 10.981   +11 35 06.15  1.2702 2.0544 129.3 23.8 2111  42
2025 10 06 03  21 23 12.840   +11 34 45.41  1.2710 2.0549 129.2 23.8 2119  42
2025 10 06 04  21 23 14.700   +11 34 24.69  1.2718 2.0554 129.2 23.8 2127  42
2025 10 06 05  21 23 16.562   +11 34 03.99  1.2726 2.0559 129.2 23.8 2135  42
2025 10 06 06  21 23 18.425   +11 33 43.31  1.2734 2.0564 129.2 23.8 2142  42
2025 10 06 07  21 23 20.290   +11 33 22.66  1.2742 2.0569 129.1 23.8 2150  42
2025 10 06 08  21 23 22.156   +11 33 02.03  1.2750 2.0575 129.1 23.8 2158  42
2025 10 06 09  21 23 24.023   +11 32 41.42  1.2758 2.0580 129.1 23.8 2166  42
2025 10 06 10  21 23 25.892   +11 32 20.84  1.2766 2.0585 129.1 23.8 2174  42
2025 10 06 11  21 23 27.763   +11 32 00.27  1.2775 2.0590 129.0 23.8 2182  42
2025 10 06 12  21 23 29.634   +11 31 39.74  1.2783 2.0595 129.0 23.8 2190  42
2025 10 06 13  21 23 31.507   +11 31 19.22  1.2791 2.0600 129.0 23.8 2197  42
2025 10 06 14  21 23 33.382   +11 30 58.72  1.2799 2.0606 128.9 23.8 2205  42
2025 10 06 15  21 23 35.258   +11 30 38.25  1.2807 2.0611 128.9 23.8 2213  42
2025 10 06 16  21 23 37.135   +11 30 17.80  1.2815 2.0616 128.9 23.8 2221  42
2025 10 06 17  21 23 39.014   +11 29 57.37  1.2823 2.0621 128.9 23.8 2229  42
2025 10 06 18  21 23 40.894   +11 29 36.97  1.2831 2.0626 128.8 23.8 2237  42
2025 10 06 19  21 23 42.775   +11 29 16.59  1.2839 2.0631 128.8 23.8 2245  42
2025 10 06 20  21 23 44.658   +11 28 56.23  1.2847 2.0637 128.8 23.8 2253  42
2025 10 06 21  21 23 46.543   +11 28 35.89  1.2855 2.0642 128.8 23.8 2261  42
2025 10 06 22  21 23 48.429   +11 28 15.58  1.2864 2.0647 128.7 23.8 2269  42
2025 10 06 23  21 23 50.316   +11 27 55.29  1.2872 2.0652 128.7 23.8 2277  42
2025 10 07 00  21 23 52.204   +11 27 35.02  1.2880 2.0657 128.7 23.8 2285  42
2025 10 07 01  21 23 54.094   +11 27 14.77  1.2888 2.0662 128.7 23.8 2293  42
2025 10 07 02  21 23 55.985   +11 26 54.55  1.2896 2.0668 128.6 23.8 2301  42
2025 10 07 03  21 23 57.878   +11 26 34.34  1.2904 2.0673 128.6 23.8 2309  42
2025 10 07 04  21 23 59.772   +11 26 14.16  1.2912 2.0678 128.6 23.8 2317  42
2025 10 07 05  21 24 01.668   +11 25 54.01  1.2920 2.0683 128.6 23.8 2326  42
2025 10 07 06  21 24 03.565   +11 25 33.87  1.2928 2.0688 128.5 23.8 2334  42
2025 10 07 07  21 24 05.463   +11 25 13.76  1.2937 2.0693 128.5 23.8 2342  42
2025 10 07 08  21 24 07.363   +11 24 53.67  1.2945 2.0698 128.5 23.8 2350  42
2025 10 07 09  21 24 09.264   +11 24 33.60  1.2953 2.0704 128.4 23.8 2358  42
2025 10 07 10  21 24 11.166   +11 24 13.56  1.2961 2.0709 128.4 23.8 2366  42
2025 10 07 11  21 24 13.070   +11 23 53.54  1.2969 2.0714 128.4 23.8 2374  42
2025 10 07 12  21 24 14.975   +11 23 33.54  1.2977 2.0719 128.4 23.8 2382  42
2025 10 07 13  21 24 16.881   +11 23 13.56  1.2985 2.0724 128.3 23.8 2391  42
2025 10 07 14  21 24 18.789   +11 22 53.61  1.2994 2.0729 128.3 23.8 2399  42
2025 10 07 15  21 24 20.699   +11 22 33.67  1.3002 2.0735 128.3 23.8 2407  42
2025 10 07 16  21 24 22.609   +11 22 13.76  1.3010 2.0740 128.3 23.8 2415  43
2025 10 07 17  21 24 24.521   +11 21 53.87  1.3018 2.0745 128.2 23.8 2424  43
2025 10 07 18  21 24 26.435   +11 21 34.01  1.3026 2.0750 128.2 23.8 2432  43
2025 10 07 19  21 24 28.349   +11 21 14.16  1.3034 2.0755 128.2 23.9 2440  43
2025 10 07 20  21 24 30.265   +11 20 54.34  1.3042 2.0760 128.2 23.9 2448  43